Lexington Weather

Lexington, Massachusetts, USA

39°F
3/30/2020 8:48am 
  • Lexington Conditions: Mist, Overcast
  • Temperature: 39.4°F / 4.1°CColder 0.2°F than last hour.
  • Dew Point: 38.7°FDecreased 0.1°Fsince last hour.
  • Relative Humidity: 97
  • Wind: Wind from ENE ENE 4 mph, 10-min avg: 3 mph, gust: 8 mph
  • Barometer: 29.96 in Steady
  • Visibility: 2 miles
  • Rain Today: 0.02 in
  •   

Regional Weather Roundup
for Boston / Norton, MA

        
000
ASUS41 KBOX 272204
RWRBOX

REGIONAL WEATHER ROUNDUP
NATIONAL WEATHER SERVICE BOSTON/NORTON MA
600 PM EDT FRI MAR 27 2020

NOTE:  "FAIR" INDICATES FEW OR NO CLOUDS BELOW 12,000 FEET WITH NO 
SIGNIFICANT WEATHER AND/OR OBSTRUCTIONS TO VISIBILITY.

MAZALL-272300-
EASTERN MASSACHUSETTS
  
CITY           SKY/WX    TMP DP  RH WIND       PRES   REMARKS
BOSTON         FAIR      59  13  16 NW15G23   29.85R                  
BEVERLY        FAIR      58  15  18 NW15G22   29.85R                  
LAWRENCE       FAIR      57  18  21 NW13      29.87R                  
BEDFORD        FAIR      60  16  18 NW13      29.84R                  
BLUE HILL        N/A     58  16  19 NW10G16   29.83R                  
NORWOOD        FAIR      62  17  17 N8        29.85R                  
MARSHFIELD     FAIR      55  28  35 VRB6G12   29.85R                  
PLYMOUTH       FAIR      60  20  21 N10       29.84R                  
TAUNTON        FAIR      62  19  19 N10       29.84R                  
NEW BEDFORD    FAIR      62  17  17 NW10G16   29.83R                  
$$

MAZALL-272300-
CAPE COD AND THE ISLANDS
  
CITY           SKY/WX    TMP DP  RH WIND       PRES   REMARKS
FALMOUTH       SUNNY     59  19  21 NE17      29.84R                  
HYANNIS        FAIR      56  28  34 N8        29.84R                  
CHATHAM        FAIR      56  22  26 VRB6      29.86R                  
PROVINCETOWN   FAIR      49  37  63 E8        29.87R                  
NANTUCKET      FAIR      56  28  34 N10       29.85R                  
MARTHAS VNYRD  FAIR      54  33  45 S7        29.85R                  
$$
 
MAZALL-272300-
CENTRAL AND WESTERN MASSACHUSETTS
  
CITY           SKY/WX    TMP DP  RH WIND       PRES   REMARKS
WORCESTER      FAIR      57  15  19 NW7       29.86R                  
FITCHBURG      FAIR      58  10  15 NW17G25   29.87R                  
ORANGE         FAIR      60  18  19 N10       29.87R                  
SPRINGFIELD    SUNNY     60  15  17 NW9       29.86R                  
WESTFIELD      FAIR      60  19  20 N14       29.86R                  
NORTH ADAMS    FAIR      56  26  31 W10       29.89R                  
PITTSFIELD     FAIR      54  24  31 NW10      29.88R                  
$$
 
RIZALL-272300-
RHODE ISLAND
  
CITY           SKY/WX    TMP DP  RH WIND       PRES   REMARKS
PROVIDENCE     FAIR      62  19  19 N13       29.85R                  
NEWPORT        FAIR      62  20  19 N9        29.84R                  
BLOCK ISLAND   FAIR      58  33  39 S9        29.86R                  
SMITHFIELD     FAIR      59  16  18 N8G17     29.86R                  
WESTERLY       FAIR      68  19  15 W8        29.85R                  
$$
 
CTZALL-272300-
CONNECTICUT
  
CITY           SKY/WX    TMP DP  RH WIND       PRES   REMARKS
BRADLEY INTL   FAIR      62  20  19 NW9       29.87R                  
HARTFORD       FAIR      63  23  21 NW12      29.87R                  
BRIDGEPORT     FAIR      64  17  16 NW10      29.88R                  
DANBURY        FAIR      60  20  21 NW12      29.89R                  
GROTON         FAIR      62  22  21 NW9       29.85R                  
NEW HAVEN      FAIR      64  21  19 NW8       29.88R                  
CHESTER        FAIR      63  21  20 N10       29.87R                  
MERIDEN        FAIR      62  24  23 NW12      29.88R                  
WILLIMANTIC    FAIR      62  21  20 NW12      29.86R                  
OXFORD         FAIR      58  20  22 NW12      29.90R                  
$$

MEZ002-015-021-024-NHZ003-005-008-011-012-014-VTZ005-008-272300-
NORTHERN NEW ENGLAND
  
CITY           SKY/WX    TMP DP  RH WIND       PRES   REMARKS
PORTLAND ME    FAIR      53  24  32 NW13      29.85R                  
BANGOR ME      CLOUDY    44  27  51 NW17      29.82R                  
CONCORD NH     FAIR      55  16  21 NW17G24   29.87R                  
MANCHESTER NH  FAIR      58  13  17 N17       29.85R                  
NASHUA NH      FAIR      59  13  16 NW14G22   29.87R                  
PORTSMOUTH NH  SUNNY     55   5  13 NW18G29   29.84R                  
JAFFREY NH     FAIR      55  28  35 NW10G21   29.87R                  
KEENE NH       FAIR      56  20  24 N13       29.88R                  
BURLINGTON VT  FAIR      50  22  33 N13       29.96R                  
MT. WASHINGTON PTSUNNY   18  16  93 NW53G61     N/A  WCI  -7          
$$

NYZ052-076-272300-
EASTERN NEW YORK
  
CITY           SKY/WX    TMP DP  RH WIND       PRES   REMARKS
ALBANY         FAIR      57  27  31 NW12      29.92R                  
NEW YORK CITY  FAIR      67  22  18 NE5       29.87R                  
$$
 
ANZALL-272300-
MARINE OBSERVATIONS
  
STATION/POSITION TIME  TEMP    WIND        PRES    VSBY  WAVE
                       AIR SEA DIR/SP/G                  HT/PER
                 (UTC) (F)     (DEG/KT/KT) (MB)    (MI)  (FT/S)
BOSTON BUOY      2150   49 43   90/  4/  6 1010.3R         6/11
BUZZARDS BAY     2100          330/ 17/ 18 1010.9R
NANTUCKET SOUND  2140                        N/A           2/11
MASS BAY-STELLWA 2104   48 42   30/ 10/ 16 1008.1R  1 7/8  6/11
ISLE OF SHOALS   2100   54     320/ 28/ 31 1009.3R
S OF BLOCK IS    2130      45                N/A           4/11
$$

......................KEY.........................
  SKY/WX - SKY CONDITION/PRESENT WEATHER
  TMP    - TEMPERATURE IN FAHRENHEIT
  DWPT   - DEWPOINT IN FAHRENHEIT
  RH     - RELATIVE HUMIDITY IN PERCENT
  WIND   - DIRECTION AND SPEED IN MPH
  PRES   - MEAN SEA LEVEL PRESSURE IN INCHES OF HG
  WCI    - WIND CHILL INDEX
  VSB    - VISIBILITY IN MILES
  HX     - HEAT INDEX
  TC     - TEMPERATURE IN CELSIUS
  VRB    - VARIABLE WIND DIRECTION
  N/A    - NOT AVAILABLE
  
      

Other recent Regional Weather Roundups

Mon Mar 30, 8:04am

Mon Mar 30, 7:04am

Mon Mar 30, 6:04am

Mon Mar 30, 5:04am

Mon Mar 30, 4:04am

Mon Mar 30, 3:05am

Mon Mar 30, 2:04am

Mon Mar 30, 1:04am

Mon Mar 30, 12:04am

Sun Mar 29, 11:04pm

Sun Mar 29, 10:05pm

Sun Mar 29, 9:04pm

Sun Mar 29, 8:04pm

Sun Mar 29, 7:04pm

Sun Mar 29, 6:04pm

Sun Mar 29, 5:05pm

Sun Mar 29, 4:04pm

Sun Mar 29, 3:04pm

Sun Mar 29, 2:04pm

Sun Mar 29, 1:05pm

Sun Mar 29, 12:04pm

Sun Mar 29, 11:04am

Sun Mar 29, 10:04am

Sun Mar 29, 9:04am

Sun Mar 29, 8:04am

Sun Mar 29, 7:04am

Sun Mar 29, 6:04am

Sun Mar 29, 5:04am

Sun Mar 29, 4:04am

Sun Mar 29, 3:04am

Sun Mar 29, 2:04am

Sun Mar 29, 1:04am

Sun Mar 29, 12:04am

Sat Mar 28, 11:05pm

Sat Mar 28, 10:04pm

Sat Mar 28, 9:04pm

Sat Mar 28, 8:04pm

Sat Mar 28, 7:04pm

Sat Mar 28, 6:04pm

Sat Mar 28, 5:05pm

Sat Mar 28, 4:04pm

Sat Mar 28, 3:04pm

Sat Mar 28, 2:04pm

Sat Mar 28, 1:05pm

Sat Mar 28, 12:04pm

Sat Mar 28, 11:04am

Sat Mar 28, 10:04am

Sat Mar 28, 9:04am

Sat Mar 28, 8:04am

Sat Mar 28, 7:04am

Sat Mar 28, 6:04am

Sat Mar 28, 5:04am

Sat Mar 28, 4:04am

Sat Mar 28, 3:04am

Sat Mar 28, 2:04am

Sat Mar 28, 1:04am

Sat Mar 28, 12:04am

Fri Mar 27, 11:04pm

Fri Mar 27, 10:04pm

Fri Mar 27, 9:04pm

Fri Mar 27, 8:04pm

Fri Mar 27, 7:05pm

Fri Mar 27, 5:05pm

Fri Mar 27, 4:05pm

Fri Mar 27, 3:04pm

Fri Mar 27, 2:05pm

Fri Mar 27, 1:04pm

Fri Mar 27, 12:04pm

Fri Mar 27, 11:04am

Fri Mar 27, 10:04am

Fri Mar 27, 9:04am

Meta data:

ID: 122537eb-5622-4ca2-90fd-711e0e5a704b
Link: https://api.weather.gov/products/122537eb-5622-4ca2-90fd-711e0e5a704b